Find Starlink 35335

NORAD ID: 66180 Int'l Des: 2025-243 Owner: SPXS Country: US Constellation: starlink operational
LEOCIRCULAR

当前视图

正在加载3D地球...

About Starlink 35335

Starlink 35335 (NORAD 66180) is a starlink constellation satellite (v2 mini) launched Oct 26, 2025 by SPXS of US. It operates in LEO, CIRCULAR orbit with a mass of 575.00 kg.

关于 Starlink 35335

正在加载描述...

即将过境

Passes for default location (London). Set your location on the main map for personalized predictions.

高度历史

Loading altitude history...

两行轨道根数

1 66180U 25243D 26174.91668981 -.00004066 00000-0 -11232-3 0 9995
2 66180 53.1600 111.9647 0000706 96.6916 341.8810 15.33564778 5871
Epoch: Jun 23, 2026 • Age: 6 hours

当前状态

高度 467.3 km
速度 7.64 km/s
星下点 33.87°N, 166.85°E
发射日期 Oct 26, 2025
运行时间 0.6 years
类型 internet

技术详情

分类 Payload
质量 575.00 kg
干质量 530.00 kg
总质量 575.00 kg
长度 0.30 m
直径 4.10 m
跨度 29.00 m
形状 Box + pan
制造商 SPXS
平台类型 Starlink V2MO
阶段状态 In Orbit
所有者/国家 SPXS/US

Most Searched